Time,TemperatureF,DewpointF,PressureIn,WindDirection,WindDirectionDegrees,WindSpeedMPH,WindSpeedGustMPH,Humidity,HourlyPrecipIn,Conditions,Clouds,dailyrainin,SoftwareType,DateUTC
2013-09-06 00:03:00,61.5,43.7,30.19,NNW,337,1.0,3.0,52,0.00,,,-99.99,WeatherLink 5.7,2013-09-06 04:03:00,
2013-09-06 00:14:00,61.5,43.7,30.19,NNW,337,0.0,1.0,52,0.00,,,-99.99,WeatherLink 5.7,2013-09-06 04:14:00,
2013-09-06 00:23:00,61.7,43.4,30.20,NNW,337,1.0,3.0,51,0.00,,,-99.99,WeatherLink 5.7,2013-09-06 04:23:00,
2013-09-06 00:34:00,61.7,43.4,30.20,NNW,337,1.0,3.0,51,0.00,,,-99.99,WeatherLink 5.7,2013-09-06 04:34:00,
2013-09-06 00:43:00,61.3,43.0,30.20,NNW,337,2.0,7.0,51,0.00,,,-99.99,WeatherLink 5.7,2013-09-06 04:43:00,
2013-09-06 00:54:00,61.4,42.6,30.21,NNW,337,3.0,8.0,50,0.00,,,-99.99,WeatherLink 5.7,2013-09-06 04:54:00,
2013-09-06 01:03:00,61.6,41.7,30.21,North,0,5.0,10.0,48,0.00,,,-99.99,WeatherLink 5.7,2013-09-06 05:03:00,
2013-09-06 01:13:00,61.7,41.3,30.21,North,0,5.0,12.0,47,0.00,,,-99.99,WeatherLink 5.7,2013-09-06 05:13:00,
2013-09-06 01:24:00,61.6,40.6,30.21,North,0,5.0,11.0,46,0.00,,,-99.99,WeatherLink 5.7,2013-09-06 05:24:00,
2013-09-06 01:33:00,61.4,41.0,30.22,North,0,4.0,10.0,47,0.00,,,-99.99,WeatherLink 5.7,2013-09-06 05:33:00,
2013-09-06 01:43:00,61.2,41.3,30.22,North,0,4.0,9.0,48,0.00,,,-99.99,WeatherLink 5.7,2013-09-06 05:43:00,
2013-09-06 01:53:00,60.9,41.1,30.22,NNW,337,4.0,7.0,48,0.00,,,-99.99,WeatherLink 5.7,2013-09-06 05:53:00,
2013-09-06 02:03:00,60.5,40.7,30.23,NNW,337,3.0,7.0,48,0.00,,,-99.99,WeatherLink 5.7,2013-09-06 06:03:00,
2013-09-06 02:13:00,60.3,41.0,30.23,NNW,337,1.0,5.0,49,0.00,,,-99.99,WeatherLink 5.7,2013-09-06 06:13:00,
2013-09-06 02:23:00,59.9,40.7,30.23,NNW,337,3.0,7.0,49,0.00,,,-99.99,WeatherLink 5.7,2013-09-06 06:23:00,
2013-09-06 02:33:00,59.6,39.9,30.22,NNW,337,4.0,8.0,48,0.00,,,-99.99,WeatherLink 5.7,2013-09-06 06:33:00,
2013-09-06 02:44:00,59.3,40.1,30.22,NNW,337,3.0,8.0,49,0.00,,,-99.99,WeatherLink 5.7,2013-09-06 06:44:00,
2013-09-06 02:54:00,59.0,39.9,30.22,NNW,337,3.0,7.0,49,0.00,,,-99.99,WeatherLink 5.7,2013-09-06 06:54:00,
2013-09-06 03:03:00,58.7,40.1,30.22,NNW,337,3.0,8.0,50,0.00,,,-99.99,WeatherLink 5.7,2013-09-06 07:03:00,
2013-09-06 03:13:00,58.5,40.4,30.23,NNW,337,2.0,5.0,51,0.00,,,-99.99,WeatherLink 5.7,2013-09-06 07:13:00,
2013-09-06 03:23:00,58.2,40.1,30.23,NNW,337,2.0,6.0,51,0.00,,,-99.99,WeatherLink 5.7,2013-09-06 07:23:00,
2013-09-06 03:34:00,57.8,40.8,30.23,NNW,337,2.0,6.0,53,0.00,,,-99.99,WeatherLink 5.7,2013-09-06 07:34:00,
2013-09-06 03:43:00,57.5,41.0,30.23,NNW,337,1.0,5.0,54,0.00,,,-99.99,WeatherLink 5.7,2013-09-06 07:43:00,
2013-09-06 03:54:00,57.3,40.3,30.22,NNW,337,1.0,4.0,53,0.00,,,-99.99,WeatherLink 5.7,2013-09-06 07:54:00,
2013-09-06 04:03:00,57.1,40.1,30.23,NNW,337,2.0,7.0,53,0.00,,,-99.99,WeatherLink 5.7,2013-09-06 08:03:00,
2013-09-06 04:13:00,57.0,39.5,30.23,NNW,337,1.0,5.0,52,0.00,,,-99.99,WeatherLink 5.7,2013-09-06 08:13:00,
2013-09-06 04:24:00,56.9,39.9,30.23,NNW,337,2.0,7.0,53,0.00,,,-99.99,WeatherLink 5.7,2013-09-06 08:24:00,
2013-09-06 04:33:00,56.7,39.7,30.23,NNW,337,4.0,9.0,53,0.00,,,-99.99,WeatherLink 5.7,2013-09-06 08:33:00,
2013-09-06 04:43:00,56.6,40.1,30.24,NNW,337,2.0,6.0,54,0.00,,,-99.99,WeatherLink 5.7,2013-09-06 08:43:00,
2013-09-06 04:54:00,56.5,39.6,30.24,NNW,337,3.0,7.0,53,0.00,,,-99.99,WeatherLink 5.7,2013-09-06 08:54:00,
2013-09-06 05:03:00,56.3,39.4,30.24,NNW,337,2.0,8.0,53,0.00,,,-99.99,WeatherLink 5.7,2013-09-06 09:03:00,
2013-09-06 05:14:00,56.2,39.8,30.24,NNW,337,2.0,6.0,54,0.00,,,-99.99,WeatherLink 5.7,2013-09-06 09:14:00,
2013-09-06 05:24:00,55.9,39.5,30.25,NNW,337,1.0,4.0,54,0.00,,,-99.99,WeatherLink 5.7,2013-09-06 09:24:00,
2013-09-06 05:34:00,55.7,39.8,30.25,NNW,337,2.0,5.0,55,0.00,,,-99.99,WeatherLink 5.7,2013-09-06 09:34:00,
2013-09-06 05:43:00,55.6,39.7,30.25,NNW,337,1.0,5.0,55,0.00,,,-99.99,WeatherLink 5.7,2013-09-06 09:43:00,
2013-09-06 05:54:00,55.5,39.1,30.25,NNW,337,3.0,7.0,54,0.00,,,-99.99,WeatherLink 5.7,2013-09-06 09:54:00,
2013-09-06 06:03:00,55.5,39.1,30.25,NNW,337,4.0,8.0,54,0.00,,,-99.99,WeatherLink 5.7,2013-09-06 10:03:00,
2013-09-06 06:13:00,55.5,39.1,30.25,NNW,337,4.0,9.0,54,0.00,,,-99.99,WeatherLink 5.7,2013-09-06 10:13:00,
2013-09-06 06:24:00,55.5,39.1,30.26,North,0,1.0,6.0,54,0.00,,,-99.99,WeatherLink 5.7,2013-09-06 10:24:00,
2013-09-06 06:34:00,55.5,39.1,30.26,North,0,2.0,7.0,54,0.00,,,-99.99,WeatherLink 5.7,2013-09-06 10:34:00,
2013-09-06 06:43:00,55.5,38.6,30.26,North,0,3.0,9.0,53,0.00,,,-99.99,WeatherLink 5.7,2013-09-06 10:43:00,
2013-09-06 06:54:00,55.8,38.9,30.26,North,0,4.0,11.0,53,0.00,,,-99.99,WeatherLink 5.7,2013-09-06 10:54:00,
2013-09-06 07:03:00,56.1,38.7,30.27,North,0,5.0,11.0,52,0.00,,,-99.99,WeatherLink 5.7,2013-09-06 11:03:00,
2013-09-06 07:14:00,56.1,38.2,30.26,North,0,5.0,10.0,51,0.00,,,-99.99,WeatherLink 5.7,2013-09-06 11:14:00,
2013-09-06 07:23:00,56.2,38.8,30.27,NNE,22,4.0,11.0,52,0.00,,,-99.99,WeatherLink 5.7,2013-09-06 11:23:00,
2013-09-06 07:33:00,56.4,38.5,30.27,NNE,22,4.0,9.0,51,0.00,,,-99.99,WeatherLink 5.7,2013-09-06 11:33:00,
2013-09-06 07:43:00,56.5,38.6,30.27,NNE,22,4.0,8.0,51,0.00,,,-99.99,WeatherLink 5.7,2013-09-06 11:43:00,
2013-09-06 07:54:00,56.8,38.3,30.28,NNE,22,4.0,9.0,50,0.00,,,-99.99,WeatherLink 5.7,2013-09-06 11:54:00,
2013-09-06 08:03:00,57.3,38.3,30.28,NNE,22,5.0,10.0,49,0.00,,,-99.99,WeatherLink 5.7,2013-09-06 12:03:00,
2013-09-06 08:13:00,57.9,38.3,30.28,North,0,4.0,9.0,48,0.00,,,-99.99,WeatherLink 5.7,2013-09-06 12:13:00,
2013-09-06 08:24:00,57.8,37.7,30.29,NNE,22,5.0,9.0,47,0.00,,,-99.99,WeatherLink 5.7,2013-09-06 12:24:00,
2013-09-06 08:34:00,57.9,37.2,30.29,NNE,22,4.0,8.0,46,0.00,,,-99.99,WeatherLink 5.7,2013-09-06 12:34:00,
2013-09-06 08:43:00,58.2,37.5,30.29,NNE,22,5.0,8.0,46,0.00,,,-99.99,WeatherLink 5.7,2013-09-06 12:43:00,
2013-09-06 08:53:00,58.7,38.0,30.29,North,0,5.0,9.0,46,0.00,,,-99.99,WeatherLink 5.7,2013-09-06 12:53:00,
2013-09-06 09:03:00,59.2,37.3,30.29,NNE,22,6.0,11.0,44,0.00,,,-99.99,WeatherLink 5.7,2013-09-06 13:03:00,
2013-09-06 09:14:00,59.3,35.6,30.29,NNE,22,7.0,14.0,41,0.00,,,-99.99,WeatherLink 5.7,2013-09-06 13:14:00,
2013-09-06 09:24:00,59.8,35.4,30.29,NNE,22,7.0,14.0,40,0.00,,,-99.99,WeatherLink 5.7,2013-09-06 13:24:00,
2013-09-06 09:33:00,60.5,36.0,30.29,NNE,22,6.0,12.0,40,0.00,,,-99.99,WeatherLink 5.7,2013-09-06 13:33:00,
2013-09-06 09:44:00,60.8,36.3,30.29,NNE,22,6.0,13.0,40,0.00,,,-99.99,WeatherLink 5.7,2013-09-06 13:44:00,
2013-09-06 09:54:00,60.9,36.4,30.29,NNE,22,6.0,11.0,40,0.00,,,-99.99,WeatherLink 5.7,2013-09-06 13:54:00,
2013-09-06 10:03:00,61.8,35.9,30.29,NE,45,5.0,11.0,38,0.00,,,-99.99,WeatherLink 5.7,2013-09-06 14:03:00,
2013-09-06 10:13:00,61.9,36.7,30.29,NE,45,7.0,15.0,39,0.00,,,-99.99,WeatherLink 5.7,2013-09-06 14:13:00,
2013-09-06 10:23:00,62.1,34.8,30.29,North,0,6.0,11.0,36,0.00,,,-99.99,WeatherLink 5.7,2013-09-06 14:23:00,
2013-09-06 10:33:00,62.3,35.7,30.29,North,0,7.0,12.0,37,0.00,,,-99.99,WeatherLink 5.7,2013-09-06 14:33:00,
2013-09-06 10:43:00,62.5,35.2,30.29,NNE,22,6.0,12.0,36,0.00,,,-99.99,WeatherLink 5.7,2013-09-06 14:43:00,
2013-09-06 10:53:00,63.1,36.4,30.30,ENE,67,4.0,10.0,37,0.00,,,-99.99,WeatherLink 5.7,2013-09-06 14:53:00,
2013-09-06 11:03:00,63.5,35.3,30.30,North,0,5.0,12.0,35,0.00,,,-99.99,WeatherLink 5.7,2013-09-06 15:03:00,
2013-09-06 11:14:00,63.3,34.4,30.29,North,0,4.0,9.0,34,0.00,,,-99.99,WeatherLink 5.7,2013-09-06 15:14:00,
2013-09-06 11:24:00,63.5,34.6,30.30,NNE,22,4.0,9.0,34,0.00,,,-99.99,WeatherLink 5.7,2013-09-06 15:24:00,
2013-09-06 11:33:00,63.8,34.9,30.30,NNE,22,4.0,10.0,34,0.00,,,-99.99,WeatherLink 5.7,2013-09-06 15:33:00,
2013-09-06 11:44:00,64.4,34.6,30.29,East,90,3.0,7.0,33,0.00,,,-99.99,WeatherLink 5.7,2013-09-06 15:44:00,
2013-09-06 11:54:00,65.2,35.4,30.29,NE,45,3.0,7.0,33,0.00,,,-99.99,WeatherLink 5.7,2013-09-06 15:54:00,
2013-09-06 12:03:00,65.3,35.4,30.29,NE,45,3.0,8.0,33,0.00,,,-99.99,WeatherLink 5.7,2013-09-06 16:03:00,
2013-09-06 12:14:00,65.5,35.6,30.28,ESE,112,3.0,9.0,33,0.00,,,-99.99,WeatherLink 5.7,2013-09-06 16:14:00,
2013-09-06 12:24:00,66.0,36.1,30.28,NNE,22,3.0,9.0,33,0.00,,,-99.99,WeatherLink 5.7,2013-09-06 16:24:00,
2013-09-06 12:33:00,66.0,36.1,30.28,NNE,22,2.0,9.0,33,0.00,,,-99.99,WeatherLink 5.7,2013-09-06 16:33:00,
2013-09-06 12:43:00,66.5,36.5,30.27,North,0,3.0,7.0,33,0.00,,,-99.99,WeatherLink 5.7,2013-09-06 16:43:00,
2013-09-06 12:54:00,66.9,36.1,30.27,WNW,292,2.0,8.0,32,0.00,,,-99.99,WeatherLink 5.7,2013-09-06 16:54:00,
2013-09-06 13:03:00,67.4,34.9,30.27,WNW,292,1.0,4.0,30,0.00,,,-99.99,WeatherLink 5.7,2013-09-06 17:03:00,
2013-09-06 13:14:00,67.9,35.3,30.26,WNW,292,2.0,6.0,30,0.00,,,-99.99,WeatherLink 5.7,2013-09-06 17:14:00,
2013-09-06 13:23:00,68.4,35.7,30.26,South,180,1.0,5.0,30,0.00,,,-99.99,WeatherLink 5.7,2013-09-06 17:23:00,
2013-09-06 13:33:00,68.6,36.7,30.26,South,180,2.0,9.0,31,0.00,,,-99.99,WeatherLink 5.7,2013-09-06 17:33:00,
2013-09-06 13:43:00,68.2,35.6,30.26,NW,315,3.0,10.0,30,0.00,,,-99.99,WeatherLink 5.7,2013-09-06 17:43:00,
2013-09-06 13:53:00,68.2,35.6,30.26,NNE,22,4.0,9.0,30,0.00,,,-99.99,WeatherLink 5.7,2013-09-06 17:53:00,
2013-09-06 14:03:00,67.9,35.3,30.25,ESE,112,3.0,8.0,30,0.00,,,-99.99,WeatherLink 5.7,2013-09-06 18:03:00,
2013-09-06 14:13:00,68.2,35.6,30.25,North,0,3.0,8.0,30,0.00,,,-99.99,WeatherLink 5.7,2013-09-06 18:13:00,
2013-09-06 14:23:00,68.1,35.5,30.25,ENE,67,1.0,6.0,30,0.00,,,-99.99,WeatherLink 5.7,2013-09-06 18:23:00,
2013-09-06 14:33:00,69.2,34.7,30.24,East,90,2.0,7.0,28,0.00,,,-99.99,WeatherLink 5.7,2013-09-06 18:33:00,
2013-09-06 14:43:00,69.8,35.2,30.24,NNW,337,1.0,7.0,28,0.00,,,-99.99,WeatherLink 5.7,2013-09-06 18:43:00,
2013-09-06 14:53:00,70.1,34.5,30.23,NNW,337,2.0,7.0,27,0.00,,,-99.99,WeatherLink 5.7,2013-09-06 18:53:00,
2013-09-06 15:03:00,70.3,34.7,30.23,NW,315,3.0,8.0,27,0.00,,,-99.99,WeatherLink 5.7,2013-09-06 19:03:00,
2013-09-06 15:14:00,69.6,34.1,30.22,NW,315,2.0,6.0,27,0.00,,,-99.99,WeatherLink 5.7,2013-09-06 19:14:00,
2013-09-06 15:24:00,70.0,34.5,30.22,NW,315,2.0,5.0,27,0.00,,,-99.99,WeatherLink 5.7,2013-09-06 19:24:00,
2013-09-06 15:34:00,70.0,35.4,30.22,NW,315,1.0,4.0,28,0.00,,,-99.99,WeatherLink 5.7,2013-09-06 19:34:00,
2013-09-06 15:43:00,70.8,35.1,30.21,NW,315,1.0,7.0,27,0.00,,,-99.99,WeatherLink 5.7,2013-09-06 19:43:00,
2013-09-06 15:53:00,70.7,35.1,30.20,NW,315,3.0,6.0,27,0.00,,,-99.99,WeatherLink 5.7,2013-09-06 19:53:00,
2013-09-06 16:03:00,70.2,34.6,30.20,NW,315,2.0,6.0,27,0.00,,,-99.99,WeatherLink 5.7,2013-09-06 20:03:00,
2013-09-06 16:13:00,71.0,34.4,30.19,NW,315,2.0,5.0,26,0.00,,,-99.99,WeatherLink 5.7,2013-09-06 20:13:00,
2013-09-06 16:23:00,71.2,35.5,30.19,NW,315,3.0,8.0,27,0.00,,,-99.99,WeatherLink 5.7,2013-09-06 20:23:00,
2013-09-06 16:33:00,70.8,35.1,30.19,NNW,337,3.0,8.0,27,0.00,,,-99.99,WeatherLink 5.7,2013-09-06 20:33:00,
2013-09-06 16:43:00,70.7,34.1,30.19,WNW,292,3.0,7.0,26,0.00,,,-99.99,WeatherLink 5.7,2013-09-06 20:43:00,
2013-09-06 16:53:00,70.1,34.5,30.19,WNW,292,1.0,5.0,27,0.00,,,-99.99,WeatherLink 5.7,2013-09-06 20:53:00,
2013-09-06 17:03:00,70.6,33.0,30.19,WNW,292,1.0,5.0,25,0.00,,,-99.99,WeatherLink 5.7,2013-09-06 21:03:00,
2013-09-06 17:13:00,70.6,33.0,30.19,WNW,292,3.0,8.0,25,0.00,,,-99.99,WeatherLink 5.7,2013-09-06 21:13:00,
2013-09-06 17:23:00,70.3,33.8,30.19,NW,315,3.0,7.0,26,0.00,,,-99.99,WeatherLink 5.7,2013-09-06 21:23:00,
2013-09-06 17:33:00,70.2,33.7,30.19,NW,315,3.0,6.0,26,0.00,,,-99.99,WeatherLink 5.7,2013-09-06 21:33:00,
2013-09-06 17:43:00,70.4,34.8,30.19,NW,315,2.0,7.0,27,0.00,,,-99.99,WeatherLink 5.7,2013-09-06 21:43:00,
2013-09-06 17:53:00,70.5,34.9,30.19,NW,315,1.0,5.0,27,0.00,,,-99.99,WeatherLink 5.7,2013-09-06 21:53:00,
2013-09-06 18:03:00,70.3,34.7,30.19,NW,315,2.0,6.0,27,0.00,,,-99.99,WeatherLink 5.7,2013-09-06 22:03:00,
2013-09-06 18:13:00,70.2,34.6,30.18,NW,315,2.0,7.0,27,0.00,,,-99.99,WeatherLink 5.7,2013-09-06 22:13:00,
2013-09-06 18:23:00,69.8,34.3,30.18,NW,315,1.0,5.0,27,0.00,,,-99.99,WeatherLink 5.7,2013-09-06 22:23:00,
2013-09-06 18:33:00,69.8,36.1,30.18,NW,315,1.0,6.0,29,0.00,,,-99.99,WeatherLink 5.7,2013-09-06 22:33:00,
2013-09-06 18:43:00,69.8,36.9,30.18,NW,315,1.0,5.0,30,0.00,,,-99.99,WeatherLink 5.7,2013-09-06 22:43:00,
2013-09-06 18:53:00,69.9,37.0,30.18,NW,315,1.0,4.0,30,0.00,,,-99.99,WeatherLink 5.7,2013-09-06 22:53:00,
2013-09-06 19:03:00,69.6,39.2,30.18,NW,315,2.0,5.0,33,0.00,,,-99.99,WeatherLink 5.7,2013-09-06 23:03:00,
2013-09-06 19:14:00,69.0,38.7,30.18,NW,315,1.0,5.0,33,0.00,,,-99.99,WeatherLink 5.7,2013-09-06 23:14:00,
2013-09-06 19:24:00,68.6,38.3,30.18,NW,315,3.0,6.0,33,0.00,,,-99.99,WeatherLink 5.7,2013-09-06 23:24:00,
2013-09-06 19:34:00,68.1,38.7,30.19,NW,315,2.0,6.0,34,0.00,,,-99.99,WeatherLink 5.7,2013-09-06 23:34:00,
2013-09-06 19:43:00,67.7,39.0,30.19,NW,315,2.0,5.0,35,0.00,,,-99.99,WeatherLink 5.7,2013-09-06 23:43:00,
2013-09-06 19:54:00,67.5,38.9,30.19,NW,315,1.0,5.0,35,0.00,,,-99.99,WeatherLink 5.7,2013-09-06 23:54:00,
2013-09-06 20:03:00,67.3,39.4,30.19,NW,315,1.0,3.0,36,0.00,,,-99.99,WeatherLink 5.7,2013-09-07 00:03:00,
2013-09-06 20:13:00,66.9,39.8,30.19,NW,315,1.0,3.0,37,0.00,,,-99.99,WeatherLink 5.7,2013-09-07 00:13:00,
2013-09-06 20:23:00,66.4,40.0,30.19,NW,315,1.0,3.0,38,0.00,,,-99.99,WeatherLink 5.7,2013-09-07 00:23:00,
2013-09-06 20:33:00,66.0,40.3,30.19,NW,315,1.0,4.0,39,0.00,,,-99.99,WeatherLink 5.7,2013-09-07 00:33:00,
2013-09-06 20:43:00,65.5,40.5,30.20,NW,315,2.0,5.0,40,0.00,,,-99.99,WeatherLink 5.7,2013-09-07 00:43:00,
2013-09-06 20:53:00,65.1,40.8,30.20,NW,315,2.0,4.0,41,0.00,,,-99.99,WeatherLink 5.7,2013-09-07 00:53:00,
2013-09-06 21:03:00,64.7,41.1,30.19,NW,315,1.0,3.0,42,0.00,,,-99.99,WeatherLink 5.7,2013-09-07 01:03:00,
2013-09-06 21:13:00,64.2,41.2,30.19,NW,315,0.0,3.0,43,0.00,,,-99.99,WeatherLink 5.7,2013-09-07 01:13:00,
2013-09-06 21:23:00,63.6,41.3,30.19,NW,315,0.0,1.0,44,0.00,,,-99.99,WeatherLink 5.7,2013-09-07 01:23:00,
2013-09-06 21:33:00,63.4,41.1,30.19,North,-999,0.0,0.0,44,0.00,,,-99.99,WeatherLink 5.7,2013-09-07 01:33:00,
2013-09-06 21:44:00,63.2,42.1,30.18,NW,315,0.0,2.0,46,0.00,,,-99.99,WeatherLink 5.7,2013-09-07 01:44:00,
2013-09-06 21:53:00,63.1,42.0,30.18,NW,315,0.0,2.0,46,0.00,,,-99.99,WeatherLink 5.7,2013-09-07 01:53:00,
2013-09-06 22:03:00,63.2,42.6,30.19,NW,315,1.0,3.0,47,0.00,,,-99.99,WeatherLink 5.7,2013-09-07 02:03:00,
2013-09-06 22:13:00,62.7,42.7,30.19,NW,315,1.0,3.0,48,0.00,,,-99.99,WeatherLink 5.7,2013-09-07 02:13:00,
2013-09-06 22:24:00,62.4,43.0,30.19,NW,315,0.0,3.0,49,0.00,,,-99.99,WeatherLink 5.7,2013-09-07 02:24:00,
2013-09-06 22:33:00,62.0,43.1,30.19,NW,315,1.0,4.0,50,0.00,,,-99.99,WeatherLink 5.7,2013-09-07 02:33:00,
2013-09-06 22:44:00,61.7,42.9,30.19,NW,315,1.0,4.0,50,0.00,,,-99.99,WeatherLink 5.7,2013-09-07 02:44:00,
2013-09-06 22:53:00,61.6,42.8,30.19,NW,315,2.0,4.0,50,0.00,,,-99.99,WeatherLink 5.7,2013-09-07 02:53:00,
2013-09-06 23:03:00,61.5,42.7,30.19,NW,315,2.0,5.0,50,0.00,,,-99.99,WeatherLink 5.7,2013-09-07 03:03:00,
2013-09-06 23:14:00,61.4,42.6,30.18,NW,315,1.0,4.0,50,0.00,,,-99.99,WeatherLink 5.7,2013-09-07 03:14:00,
2013-09-06 23:23:00,61.0,42.7,30.18,NW,315,1.0,4.0,51,0.00,,,-99.99,WeatherLink 5.7,2013-09-07 03:23:00,
2013-09-06 23:33:00,60.8,43.1,30.18,NW,315,2.0,5.0,52,0.00,,,-99.99,WeatherLink 5.7,2013-09-07 03:33:00,
2013-09-06 23:43:00,60.5,43.3,30.18,NW,315,2.0,6.0,53,0.00,,,-99.99,WeatherLink 5.7,2013-09-07 03:43:00,
2013-09-06 23:53:00,60.2,43.0,30.18,NW,315,2.0,5.0,53,0.00,,,-99.99,WeatherLink 5.7,2013-09-07 03:53:00,